Temperature
2 3 3 3 3 3 2 2 3 4 4 4 4 3 4 4 3 3 2 2 2 2 2 2 2 2 2 2 2 3 3 3 3 3 3 3 3 3 2 2 3 3 3 3
1 3 3 3 2 2 2 2 3 3 3 4 4 4 3 3 3 2 2 2 1 1 2 2 2 2 2 2 2 2 2 2 2 2 2 2 2 2 2 2 2 2 2 2
2 2 2 2 2 2 2 2 2 2 3 3 3 3 3 2 2 1 1 1 1 1 1 1 1 1 1 1 1 1 1 1 1 1 2 2 2 2 1 1 1 1 1 1
1 1 2 3 3 2 2 2 2 2 2 2 2 2 2 2 1 1 1 1 1 1 1 1 1 1 1 1 1 0 0 0 1 1 1 1 1 1 1 1 1 1 1 1
1 1 2 3 2 2 1 1 1 1 1 2 2 2 1 1 1 0 0 0 0 0 0 0 0 0 0 0 -0 -0 -0 -0 0 0 0 0 0 0 0 0 0 0 0 0
1 1 2 3 1 1 1 1 1 1 1 1 1 -1 -0 0 0 -0 -0 -0 -0 -0 -0 -0 -0 -0 -0 -0 -1 -1 -1 -1 -0 -0 -0 -0 -0 -0 -0 -1 -1 -1 -1 -0
0 1 2 1 0 1 1 1 1 1 1 0 -0 -1 -0 -0 -1 -1 -1 -1 -1 -1 -1 -1 -1 -1 -1 -1 -1 -1 -1 -1 -1 -1 -1 -1 -1 -1 -1 -1 -1 -1 -1 -1
-0 0 1 -0 -1 -0 0 1 1 0 0 -0 -0 -0 -1 -1 -1 -1 -1 -1 -1 -1 -1 -1 -1 -1 -2 -2 -2 -2 -2 -2 -2 -2 -1 -1 -1 -1 -1 -1 -1 -2 -1 -1
-0 1 1 1 1 1 1 1 1 0 0 -0 -1 -1 -1 -2 -2 -2 -2 -2 -2 -2 -2 -2 -2 -2 -2 -2 -2 -2 -2 -2 -2 -2 -2 -2 -2 -2 -2 -2 -2 -2 -2 -2
-1 -0 1 1 1 1 0 0 0 -0 -0 -1 -1 -1 -2 -2 -2 -2 -2 -2 -2 -2 -2 -2 -2 -3 -3 -3 -3 -2 -2 -3 -3 -3 -3 -3 -2 -2 -2 -2 -2 -2 -2 -2
-2 -1 -0 1 0 0 -0 -0 -0 -1 -1 -1 -1 -2 -2 -2 -3 -3 -3 -3 -3 -3 -3 -3 -3 -3 -3 -3 -3 -3 -3 -3 -3 -3 -3 -3 -3 -3 -3 -3 -3 -3 -3 -3
-1 -1 -1 -1 -0 -0 -1 -1 -1 -1 -1 -1 -2 -2 -2 -3 -3 -3 -3 -3 -3 -3 -3 -3 -3 -3 -3 -3 -3 -3 -3 -3 -4 -4 -4 -4 -4 -4 -4 -3 -3 -3 -3 -3
-0 -0 -1 -1 -1 -1 -1 -1 -2 -2 -2 -2 -2 -3 -3 -3 -4 -3 -3 -3 -4 -4 -4 -4 -4 -3 -4 -4 -3 -3 -4 -4 -4 -4 -4 -4 -4 -4 -4 -4 -4 -4 -4 -4
-1 -1 -2 -2 -2 -2 -2 -2 -2 -3 -3 -3 -3 -3 -3 -4 -4 -4 -4 -4 -4 -4 -4 -4 -4 -4 -4 -4 -4 -4 -4 -4 -4 -4 -4 -5 -5 -5 -4 -4 -4 -4 -4 -4
-2 -2 -2 -2 -2 -2 -3 -3 -3 -3 -3 -4 -4 -4 -4 -4 -4 -4 -4 -4 -4 -4 -4 -4 -4 -4 -4 -4 -4 -4 -4 -4 -4 -5 -5 -5 -5 -5 -5 -5 -5 -4 -4 -4
-2 -2 -2 -3 -3 -3 -3 -4 -4 -4 -4 -4 -4 -4 -4 -4 -4 -4 -4 -4 -4 -4 -4 -4 -4 -4 -4 -4 -4 -4 -4 -4 -5 -5 -5 -5 -5 -5 -5 -5 -5 -5 -5 -5
-3 -3 -3 -3 -3 -3 -4 -4 -4 -4 -4 -4 -4 -4 -4 -5 -4 -4 -5 -5 -5 -5 -5 -5 -5 -5 -5 -5 -5 -5 -5 -5 -5 -5 -5 -5 -5 -6 -5 -5 -5 -5 -5 -5
-3 -3 -3 -4 -4 -4 -4 -4 -4 -4 -4 -5 -5 -5 -5 -5 -5 -5 -5 -5 -5 -5 -5 -5 -5 -5 -5 -5 -5 -5 -5 -5 -5 -6 -6 -6 -6 -6 -6 -6 -6 -6 -6 -5
-3 -3 -4 -4 -4 -4 -4 -5 -5 -5 -5 -5 -5 -5 -5 -5 -5 -5 -5 -5 -5 -5 -5 -5 -5 -5 -5 -5 -6 -6 -6 -6 -6 -6 -6 -6 -6 -6 -6 -6 -6 -6 -6 -6
-3 -3 -4 -4 -4 -4 -5 -5 -5 -5 -5 -5 -5 -5 -5 -6 -6 -6 -6 -6 -6 -6 -6 -6 -6 -6 -6 -6 -6 -6 -6 -6 -6 -6 -6 -6 -6 -6 -6 -6 -6 -6 -6 -6
-3 -4 -4 -4 -5 -5 -5 -5 -5 -5 -5 -5 -5 -6 -6 -6 -6 -6 -6 -6 -6 -6 -6 -6 -6 -6 -6 -6 -6 -6 -6 -6 -6 -6 -7 -7 -7 -7 -7 -7 -6 -6 -6 -6
-4 -4 -5 -5 -5 -5 -5 -5 -5 -5 -6 -6 -6 -6 -6 -6 -6 -6 -6 -6 -6 -6 -6 -6 -6 -6 -7 -7 -7 -7 -7 -7 -7 -7 -7 -7 -7 -7 -7 -7 -7 -7 -6 -6
-4 -5 -5 -5 -5 -5 -6 -6 -6 -6 -6 -6 -6 -6 -7 -7 -7 -7 -7 -7 -7 -7 -7 -7 -7 -7 -7 -7 -7 -7 -7 -7 -7 -7 -7 -7 -7 -7 -7 -7 -7 -7 -7 -7
-5 -5 -5 -5 -6 -6 -6 -6 -6 -6 -6 -7 -7 -7 -7 -7 -7 -7 -7 -7 -7 -7 -7 -7 -7 -7 -7 -7 -7 -7 -7 -7 -7 -7 -7 -7 -7 -7 -7 -7 -7 -7 -7 -7
-5 -5 -6 -6 -6 -6 -6 -6 -6 -7 -7 -7 -7 -7 -7 -7 -7 -7 -7 -7 -7 -7 -7 -7 -7 -7 -7 -7 -7 -8 -8 -8 -8 -8 -7 -7 -7 -7 -7 -7 -7 -7 -7 -7
-5 -6 -6 -6 -6 -6 -7 -7 -7 -7 -7 -7 -7 -7 -7 -7 -7 -7 -7 -7 -7 -7 -7 -7 -8 -7 -7 -8 -8 -8 -8 -8 -8 -8 -7 -7 -7 -7 -7 -7 -7 -7 -7 -7
-6 -6 -6 -6 -6 -7 -7 -7 -7 -7 -7 -7 -8 -7 -7 -7 -7 -8 -8 -8 -8 -8 -8 -8 -8 -8 -8 -8 -8 -8 -8 -8 -8 -8 -7 -7 -7 -7 -7 -7 -7 -7 -7 -7
Wind_Speed
8 9 6 7 8 6 7 7 7 8 9 10 8 8 7 7 6 5 6 5 6 5 4 4 3 3 2 3 3 2 2 2 1 1 1 1 2 2 1 1 1 1 1 1
6 7 6 9 10 9 9 8 10 12 13 9 8 7 7 6 6 6 6 6 6 5 4 4 3 3 3 3 3 2 2 2 2 2 2 2 2 1 1 1 1 1 1 0
5 4 5 7 8 8 7 7 7 10 10 7 7 7 6 5 5 6 6 6 6 4 3 3 2 2 2 2 2 2 2 2 2 2 2 2 2 2 1 1 1 1 0 0
4 4 6 5 1 4 7 8 7 8 7 7 6 6 5 4 5 5 6 6 6 5 4 3 3 3 2 2 2 2 2 2 2 2 2 1 2 1 1 1 0 0 0 0
2 4 7 4 2 1 3 6 4 6 8 7 6 5 3 4 5 5 5 5 4 4 4 4 3 3 2 2 2 2 2 2 2 2 2 2 1 1 1 1 0 0 0 0
3 4 5 3 1 1 1 4 3 3 5 5 4 3 4 5 6 6 5 5 4 4 4 4 3 3 2 2 2 1 1 1 1 1 1 1 1 1 1 1 1 1 1 0
6 6 6 2 0 1 1 4 4 3 4 4 3 4 4 4 5 4 4 4 4 4 4 3 3 3 2 2 1 1 1 1 1 1 1 1 0 0 1 1 1 1 1 1
4 5 7 1 3 3 4 3 4 4 4 5 5 4 3 3 3 4 4 5 4 4 4 4 3 3 2 2 2 1 1 1 1 1 1 1 1 1 1 1 1 1 1 1
7 7 3 3 3 3 2 4 4 4 5 4 4 4 3 3 3 3 3 3 3 4 4 4 4 3 2 3 3 2 2 1 1 1 1 1 1 1 1 1 1 1 1 1
5 6 5 5 4 4 4 5 5 5 4 4 4 3 3 3 3 3 3 3 3 3 4 4 4 4 3 3 3 2 1 1 1 1 2 2 1 1 1 1 1 1 1 1
6 6 6 4 4 5 5 5 5 5 4 3 3 3 3 3 3 2 3 3 3 3 3 4 4 4 4 4 3 2 1 1 1 1 1 1 1 1 1 1 2 2 2 1
6 4 3 5 4 4 5 6 6 5 4 3 2 3 2 3 3 2 3 3 3 4 4 4 4 4 4 4 2 1 1 1 1 1 1 1 1 2 2 2 2 2 2 2
6 5 5 7 6 5 5 6 5 4 3 3 2 2 1 2 2 2 3 3 3 4 4 4 4 4 4 3 2 1 1 1 1 1 1 1 1 1 2 2 2 2 2 2
5 5 6 5 6 5 4 4 4 3 3 2 2 1 1 1 2 2 3 3 3 3 4 4 3 4 4 3 2 2 1 1 1 1 1 1 1 2 2 2 2 2 2 2
5 4 5 5 5 4 3 3 3 3 3 2 1 1 1 1 2 3 3 3 3 3 4 4 4 4 4 3 2 2 1 1 1 1 1 1 1 1 1 2 1 1 1 2
5 4 4 4 5 5 4 3 3 4 2 1 1 1 1 1 2 2 3 3 3 4 4 4 4 4 4 3 2 1 1 2 2 1 1 1 1 1 1 1 1 1 0 1
4 5 5 5 5 5 4 3 4 3 2 1 1 1 1 1 2 3 3 3 3 3 4 4 4 4 3 2 1 1 1 2 2 2 1 1 1 1 1 1 1 1 1 0
4 5 5 5 5 5 4 3 3 2 2 2 1 0 0 1 2 3 3 3 3 4 4 3 3 4 3 2 2 1 1 1 1 1 1 1 1 1 1 1 1 1 1 0
4 4 4 4 4 4 3 3 2 2 1 0 0 1 1 1 2 3 3 3 3 4 4 4 6 4 3 3 3 1 1 1 1 1 1 2 2 1 1 1 1 1 1 1
3 3 3 3 3 2 2 2 2 1 1 0 0 1 1 2 2 2 3 3 3 3 3 4 4 3 3 3 3 1 1 1 1 1 1 1 1 1 1 1 1 1 1 1
3 3 3 2 3 2 2 2 1 1 1 1 0 1 1 2 2 2 2 3 4 3 3 5 3 2 2 2 3 2 1 1 1 1 1 1 1 1 1 1 1 1 1 1
2 2 2 2 2 2 2 2 1 0 0 1 1 1 1 2 2 2 3 3 3 5 4 3 2 3 3 3 2 1 1 1 1 1 1 1 1 1 1 1 1 1 1 1
2 2 2 2 1 2 2 2 1 0 0 1 1 1 2 2 2 2 3 3 3 5 4 3 4 4 4 3 1 1 1 1 1 1 1 1 1 1 1 1 1 1 1 1
2 2 1 1 0 0 1 2 1 1 1 1 2 2 2 2 2 2 2 4 5 5 3 4 5 4 4 2 1 1 1 1 1 1 1 1 1 1 1 1 1 1 1 1
1 1 1 1 1 1 1 1 1 1 1 1 2 2 2 2 2 3 3 3 5 5 3 4 4 4 2 1 1 1 1 1 1 1 1 1 1 1 1 1 1 1 1 1
2 2 2 2 2 1 1 1 1 1 1 1 2 2 1 1 2 2 2 3 3 4 3 2 2 3 2 2 1 1 1 2 2 2 1 1 1 1 1 1 1 1 1 0
2 1 1 1 1 1 1 1 1 1 1 1 2 2 2 2 2 2 2 2 2 2 2 2 2 2 1 1 1 1 1 1 1 1 1 1 1 1 1 1 1 1 0 0
Wind_Direction
270 278 273 265 266 250 232 234 244 270 282 290 303 314 319 321 326 330 334 343 349 345 350 11 17 12 6 10 9 18 38 50 74 91 100 90 88 80 76 94 117 144 154 179
276 264 264 271 263 251 247 248 253 271 279 284 299 310 315 321 331 332 336 342 346 349 0 4 6 357 5 7 11 30 47 41 49 72 83 79 84 83 70 68 73 75 88 124
279 303 303 271 249 230 234 232 236 250 261 292 308 313 314 321 335 330 334 341 339 340 346 343 344 358 355 358 36 53 47 43 45 60 72 71 66 67 44 55 66 45 30 13
290 320 261 251 207 213 237 252 243 259 284 301 299 305 314 334 326 324 333 339 342 353 355 359 4 5 10 26 57 67 58 40 34 44 57 62 62 61 17 39 79 338 274 258
260 274 273 269 259 214 234 275 252 260 285 302 321 319 313 347 354 344 345 349 350 1 2 7 12 14 27 35 54 65 57 38 25 37 36 50 43 14 350 330 312 321 264 203
235 255 259 265 12 22 82 288 304 289 292 311 342 315 296 345 351 354 359 360 360 1 3 3 360 15 36 32 42 45 32 17 23 30 38 34 359 326 322 319 311 327 342 336
234 248 265 275 134 104 171 273 329 334 309 303 271 259 286 326 342 351 353 355 360 5 0 352 356 16 27 21 7 342 8 35 28 24 26 3 26 348 350 338 344 349 356 347
209 230 260 171 136 188 242 307 323 317 310 300 297 308 323 334 340 351 355 358 3 6 358 358 6 21 21 358 340 14 54 55 27 2 354 7 35 355 2 343 335 320 358 355
204 223 262 187 211 246 295 301 304 304 302 297 301 306 316 324 332 342 347 349 360 5 1 2 5 12 9 340 351 37 62 50 16 3 0 12 11 327 335 329 313 310 314 306
262 265 268 256 258 282 290 287 294 294 289 291 291 293 302 313 320 334 340 346 354 4 360 354 356 360 351 341 354 32 49 12 8 7 353 350 333 317 319 304 297 296 291 293
258 274 294 279 279 293 300 302 302 302 296 283 285 288 294 305 312 324 337 349 1 357 348 344 349 352 351 350 359 19 21 353 351 344 333 335 329 306 291 270 266 274 271 263
251 264 261 278 295 299 298 296 292 293 299 290 279 290 309 314 317 331 341 352 353 346 344 343 346 344 343 346 351 6 1 346 331 321 329 335 332 336 332 306 328 326 329 315
257 283 277 282 299 305 293 291 292 291 288 295 304 300 305 314 332 348 349 346 335 328 330 335 344 340 337 344 351 354 301 298 311 322 320 317 316 311 320 334 341 340 351 357
273 281 281 285 292 305 308 313 318 320 313 310 316 321 336 336 341 338 325 325 325 326 328 332 339 334 332 340 350 343 318 303 308 288 290 283 283 289 292 296 313 335 347 6
292 279 266 285 299 314 325 326 322 315 312 319 331 327 310 304 310 315 321 333 337 334 330 332 332 325 335 340 342 334 333 311 287 282 288 292 290 293 299 301 295 304 341 351
300 295 292 296 298 307 316 314 301 295 296 299 312 314 304 307 317 319 324 337 341 329 323 322 319 318 330 333 334 332 332 330 325 299 291 292 292 293 298 297 295 289 307 331
287 290 296 300 300 302 299 295 295 296 293 279 278 298 322 343 334 328 329 334 333 323 324 323 319 325 331 329 328 328 329 322 334 332 311 302 305 302 293 290 294 295 302 311
257 264 276 283 291 298 303 308 309 302 287 277 276 315 307 297 305 320 328 336 343 339 331 333 337 337 333 335 332 331 336 342 356 350 336 330 322 316 308 303 316 337 354 8
281 282 287 290 289 289 297 305 306 309 327 350 262 267 288 300 309 319 330 337 336 330 329 344 345 349 339 340 345 344 349 349 348 349 346 337 346 356 353 356 15 19 14 25
303 305 308 313 319 313 310 319 331 351 359 10 4 345 335 322 320 323 324 312 301 301 316 333 336 334 337 337 347 347 345 343 344 347 356 9 13 11 15 15 11 20 35 47
300 305 310 312 318 326 325 331 343 331 342 26 31 307 308 313 314 312 313 309 312 328 336 330 333 328 329 331 340 352 353 353 353 358 7 7 9 10 11 17 16 15 23 26
287 289 296 303 312 324 335 346 346 336 16 22 4 345 326 316 314 308 285 278 302 324 337 324 322 324 331 339 347 352 354 358 3 7 9 4 358 352 360 12 14 8 17 18
279 283 289 291 292 313 334 339 325 280 224 269 277 285 287 293 297 297 304 307 317 322 330 318 321 328 338 352 356 356 1 8 3 356 354 352 347 344 351 3 3 3 7 3
272 275 276 277 30 345 320 319 320 306 267 274 266 261 269 294 302 286 285 308 317 317 315 315 325 331 342 358 1 2 2 1 353 344 343 343 346 347 351 350 346 339 335 327
238 221 212 203 215 244 252 271 290 284 291 291 285 276 266 263 270 294 307 307 310 317 317 317 324 332 343 342 349 351 349 340 342 346 344 335 331 332 330 330 326 310 297 298
225 232 233 227 223 222 215 218 258 274 287 303 304 296 292 290 283 289 299 301 306 318 322 316 321 330 338 334 329 332 330 329 335 343 345 335 329 325 322 318 304 292 280 301
222 227 227 239 229 210 211 226 247 264 265 271 289 293 299 304 302 303 308 309 313 316 316 314 316 320 324 326 325 323 327 330 336 336 333 325 316 303 301 293 287 288 293 302
Height
1490 1486 1485 1485 1484 1483 1484 1481 1480 1469 1466 1462 1460 1458 1457 1455 1452 1449 1447 1444 1442 1439 1437 1435 1434 1434 1434 1434 1434 1434 1434 1434 1434 1436 1437 1437 1438 1439 1441 1442 1442 1444 1444 1445
1490 1483 1482 1481 1479 1479 1479 1477 1474 1469 1465 1459 1458 1457 1455 1453 1451 1448 1446 1444 1441 1438 1437 1435 1434 1433 1433 1432 1432 1433 1433 1433 1433 1434 1435 1435 1436 1437 1438 1439 1439 1440 1441 1442
1488 1483 1482 1479 1473 1473 1472 1469 1469 1468 1462 1457 1457 1455 1454 1452 1450 1448 1446 1443 1441 1439 1436 1435 1434 1433 1432 1431 1431 1431 1432 1432 1432 1432 1432 1433 1434 1435 1436 1436 1436 1437 1438 1439
1491 1488 1485 1470 1465 1465 1466 1464 1463 1461 1459 1457 1456 1454 1453 1451 1449 1447 1445 1442 1440 1438 1436 1434 1433 1432 1431 1431 1430 1430 1430 1430 1431 1431 1431 1432 1432 1433 1434 1434 1434 1435 1436 1436
1492 1487 1475 1466 1464 1465 1466 1463 1459 1459 1457 1456 1454 1452 1450 1449 1448 1446 1444 1442 1440 1437 1436 1434 1432 1432 1431 1430 1430 1429 1429 1430 1430 1430 1430 1430 1430 1431 1432 1432 1433 1433 1433 1433
1489 1486 1477 1464 1464 1462 1465 1464 1457 1456 1456 1455 1454 1454 1451 1448 1446 1444 1442 1440 1439 1437 1435 1433 1432 1431 1430 1429 1429 1428 1428 1428 1428 1429 1429 1429 1429 1429 1430 1430 1430 1430 1430 1431
1488 1483 1472 1465 1464 1464 1468 1463 1458 1456 1455 1454 1453 1453 1450 1447 1445 1443 1441 1439 1437 1436 1434 1432 1431 1430 1428 1428 1427 1427 1427 1426 1427 1427 1427 1427 1427 1428 1428 1428 1428 1428 1428 1428
1486 1483 1474 1464 1464 1465 1462 1458 1457 1455 1454 1452 1451 1449 1447 1445 1443 1442 1440 1438 1436 1434 1433 1432 1430 1429 1427 1426 1426 1425 1425 1425 1425 1425 1425 1425 1425 1426 1426 1426 1426 1426 1426 1426
1475 1471 1463 1461 1460 1459 1458 1457 1455 1453 1451 1450 1448 1447 1445 1444 1442 1440 1439 1437 1435 1434 1432 1431 1430 1428 1426 1425 1425 1423 1423 1423 1423 1423 1424 1424 1424 1424 1424 1425 1424 1424 1424 1424
1468 1462 1459 1458 1457 1457 1456 1455 1453 1451 1449 1448 1446 1445 1443 1442 1441 1439 1438 1436 1435 1433 1431 1430 1429 1427 1426 1424 1423 1422 1421 1421 1421 1421 1422 1422 1423 1423 1423 1423 1423 1423 1423 1422
1465 1460 1457 1455 1455 1454 1453 1451 1450 1449 1447 1445 1444 1443 1442 1440 1439 1438 1437 1435 1434 1432 1430 1429 1427 1426 1424 1423 1422 1421 1420 1420 1420 1421 1421 1421 1421 1422 1422 1422 1422 1422 1421 1421
1461 1457 1457 1454 1452 1451 1450 1448 1447 1445 1444 1443 1442 1440 1440 1439 1438 1437 1435 1434 1433 1431 1430 1428 1427 1425 1424 1422 1421 1420 1419 1419 1419 1419 1419 1419 1419 1420 1420 1420 1420 1420 1420 1420
1456 1454 1453 1451 1450 1448 1447 1445 1444 1442 1441 1440 1439 1439 1438 1437 1436 1435 1434 1433 1432 1430 1429 1427 1426 1424 1423 1421 1420 1419 1418 1418 1418 1418 1418 1418 1418 1418 1417 1418 1418 1418 1418 1418
1453 1452 1449 1448 1446 1445 1443 1442 1441 1440 1439 1438 1437 1437 1436 1435 1434 1433 1432 1431 1430 1429 1427 1426 1425 1423 1422 1420 1419 1418 1417 1417 1417 1417 1416 1416 1416 1416 1416 1416 1415 1415 1416 1416
1449 1448 1447 1445 1443 1442 1441 1439 1438 1437 1436 1436 1435 1435 1434 1434 1433 1432 1431 1430 1429 1427 1426 1425 1423 1422 1421 1419 1418 1417 1416 1415 1415 1415 1415 1415 1415 1415 1415 1415 1414 1414 1414 1414
1446 1445 1443 1442 1440 1439 1438 1437 1436 1434 1434 1434 1433 1433 1433 1432 1431 1430 1430 1429 1427 1426 1424 1423 1422 1421 1420 1418 1417 1415 1415 1414 1414 1414 1413 1413 1413 1413 1413 1413 1413 1413 1413 1413
1443 1441 1440 1439 1437 1436 1436 1434 1433 1433 1432 1432 1431 1431 1431 1430 1430 1429 1428 1427 1426 1425 1423 1422 1420 1419 1418 1417 1416 1414 1413 1413 1413 1413 1412 1412 1412 1412 1412 1412 1411 1411 1411 1412
1441 1440 1438 1437 1436 1434 1433 1432 1431 1431 1430 1430 1430 1429 1429 1428 1428 1427 1426 1425 1424 1423 1422 1421 1419 1418 1417 1416 1415 1414 1413 1412 1411 1411 1411 1411 1411 1411 1411 1410 1410 1410 1410 1410
1437 1437 1435 1434 1433 1432 1431 1430 1429 1429 1428 1428 1428 1428 1427 1427 1426 1425 1425 1424 1422 1421 1420 1419 1418 1417 1416 1415 1414 1413 1412 1412 1411 1411 1410 1410 1410 1410 1410 1409 1409 1409 1409 1409
1435 1434 1433 1431 1431 1430 1429 1428 1427 1427 1427 1427 1426 1426 1426 1425 1425 1424 1423 1422 1421 1420 1419 1418 1417 1416 1415 1414 1414 1413 1412 1411 1411 1410 1410 1410 1409 1409 1409 1408 1408 1408 1408 1408
1432 1431 1430 1429 1428 1427 1427 1426 1426 1425 1425 1425 1425 1425 1424 1424 1423 1422 1421 1420 1420 1419 1418 1417 1416 1415 1414 1414 1413 1413 1412 1411 1410 1410 1410 1409 1409 1409 1408 1408 1408 1407 1407 1407
1430 1429 1428 1427 1426 1425 1425 1425 1424 1424 1424 1424 1424 1423 1423 1422 1422 1421 1420 1419 1418 1418 1417 1416 1415 1414 1413 1413 1412 1412 1411 1411 1410 1410 1409 1409 1408 1408 1408 1407 1407 1407 1407 1407
1428 1427 1426 1425 1424 1424 1423 1423 1423 1423 1422 1422 1422 1422 1421 1421 1420 1420 1418 1418 1417 1416 1415 1414 1413 1413 1412 1412 1411 1411 1410 1410 1409 1409 1408 1408 1408 1408 1407 1407 1407 1407 1407 1407
1425 1425 1424 1423 1422 1422 1421 1421 1421 1421 1421 1421 1421 1420 1420 1419 1419 1418 1417 1416 1415 1414 1413 1413 1412 1411 1411 1410 1410 1410 1409 1409 1409 1408 1408 1408 1407 1407 1407 1406 1406 1406 1406 1406
1423 1422 1422 1421 1420 1420 1420 1420 1419 1419 1419 1419 1419 1419 1418 1418 1417 1416 1415 1414 1413 1413 1412 1411 1411 1410 1410 1409 1409 1409 1408 1408 1408 1407 1407 1407 1406 1406 1406 1406 1406 1405 1405 1405
1420 1420 1419 1419 1419 1419 1418 1418 1418 1417 1417 1417 1417 1416 1416 1416 1415 1414 1413 1413 1412 1411 1410 1410 1409 1409 1408 1408 1408 1407 1407 1407 1407 1407 1406 1406 1406 1406 1405 1405 1405 1405 1405 1404
1418 1417 1417 1416 1416 1417 1417 1417 1416 1416 1415 1415 1415 1414 1414 1414 1413 1412 1412 1411 1410 1409 1409 1408 1408 1407 1407 1407 1406 1406 1406 1406 1406 1406 1405 1405 1405 1405 1405 1404 1404 1404 1404 1404